This is the latest recevied weather packets stored in our database for station/object WX7FGZ-3. If no packets are shown the sender has not sent any weather packets the latest 10 day(s).
| Time | Temp. | Humidity | Pressure | Rain* | Wind** | Luminosity | Snow |
|---|---|---|---|---|---|---|---|
| 1777790546 | 4.44° C | 47% | 1017.5 hPa | 0 mm | - | - | - |
| 1777790246 | 5° C | 47% | 1017.5 hPa | 0 mm | - | - | - |
| 1777789945 | 5° C | 50% | 1017.5 hPa | 0 mm | - | - | - |
| 1777789645 | 5° C | 50% | 1017.4 hPa | 0 mm | - | - | - |
| 1777789345 | 4.44° C | 48% | 1017.4 hPa | 0 mm | - | - | - |
| 1777788744 | 4.44° C | 45% | 1017.3 hPa | 0 mm | - | - | - |
| 1777788444 | 5° C | 43% | 1017.3 hPa | 0 mm | - | - | - |
| 1777788144 | 5° C | 43% | 1017.3 hPa | 0 mm | - | - | - |
| 1777787844 | 5.56° C | 44% | 1017.3 hPa | 0 mm | - | - | - |
| 1777787543 | 5.56° C | 43% | 1017.1 hPa | 0 mm | - | - | - |
| 1777787243 | 5.56° C | 43% | 1017.1 hPa | 0 mm | - | - | - |
| 1777786943 | 6.11° C | 43% | 1017.2 hPa | 0 mm | - | - | - |
| 1777786643 | 6.11° C | 42% | 1017.1 hPa | 0 mm | - | - | - |
| 1777786342 | 6.11° C | 41% | 1017.1 hPa | 0 mm | - | - | - |
| 1777786042 | 6.11° C | 40% | 1017.1 hPa | 0 mm | - | - | - |
| 1777785741 | 6.11° C | 41% | 1017.2 hPa | 0 mm | - | - | - |
| 1777785442 | 6.11° C | 40% | 1017.2 hPa | 0 mm | - | - | - |
| 1777785141 | 6.11° C | 40% | 1017.3 hPa | 0 mm | - | - | - |
| 1777784842 | 6.11° C | 41% | 1017.3 hPa | 0 mm | - | - | - |
| 1777784540 | 6.11° C | 40% | 1017.2 hPa | 0 mm | - | - | - |
| 1777784240 | 6.67° C | 39% | 1017.3 hPa | 0 mm | - | - | - |
| 1777783940 | 6.11° C | 39% | 1017.4 hPa | 0 mm | - | - | - |
| 1777783640 | 6.67° C | 39% | 1017.3 hPa | 0 mm | - | - | - |
| 1777783339 | 6.67° C | 39% | 1017.2 hPa | 0 mm | - | - | - |
| 1777783039 | 6.67° C | 39% | 1017 hPa | 0 mm | - | - | - |
* Rain latest hour (hover to see other rain measurements)
** Current wind speed in m/s (hover to see current wind gust speed)